Location: Unspecified
(0.0000°N, 0.0000°E)
Time: 08:22:41
(UTC+01:00)

Daily predictions for brighter satellites

Satellite Brightness Start Highest point End
(mag) Time Altitude Azimuth Time Altitude Azimuth Time Altitude Azimuth
SMAP 3.5 19:04:02 10° S 19:08:39 71° WSW 19:13:16 10° NNW
OE (NEXTSAT) 4.4 19:06:34 10° NNW 19:10:02 63° NE 19:13:32 10° SE
Meteor 1-20 Rocket 4.4 19:05:36 10° N 19:11:01 77° W 19:16:29 10° S
CZ-4 R/B 1.4 19:07:24 10° S 19:11:23 86° WSW 19:15:16 10° NNW
COSMO-SKYMED 1 4.4 19:10:06 10° NNW 19:13:59 33° WNW 19:17:55 10° SW
Aurora 2 Rocket 4.2 19:09:08 10° NW 19:14:12 25° NNE 19:18:05 10° ENE
Cosmos 1777 Rocket 4.1 19:09:38 10° SSW 19:14:56 89° WNW 19:20:12 10° NNE
Okean 3 3.9 19:13:47 10° SSE 19:17:44 39° E 19:21:38 10° NNE
Cosmos 1633 3.4 19:17:52 10° NNW 19:21:27 55° W 19:25:02 10° S
Cosmos 2369 Rocket 2.9 19:22:05 10° SSW 19:27:38 57° WNW 19:33:09 10° N
CZ-4 R/B 4.5 19:24:21 10° S 19:28:32 88° W 19:32:41 10° NNW
NOSS 3-1 (C) 4.1 19:24:27 10° SW 19:29:42 47° WNW 19:35:00 10° N
Cosmos 1602 3.7 19:26:23 10° N 19:30:12 63° E 19:34:04 10° SSE
ASTRO E2 4.3 19:27:43 10° W 19:31:10 27° NNW 19:34:36 10° NNE
Cosmos 1536 4.1 19:30:39 10° NE 19:33:42 21° E 19:36:44 10° SE
Star 37E S/N 40089 3.5 19:37:39 10° WSW 19:39:29 75° NNW 19:40:56 22° NE
Cosmos 540 Rocket 3.4 19:35:15 10° N 19:40:22 76° ENE 19:45:29 10° SSE
ATLAS 2AS CENTAUR R/B 4.5 19:38:42 10° SE 19:41:10 12° ESE 19:42:42 11° E
Thor Agena Rocket 3.8 19:36:34 10° N 19:41:43 74° WNW 19:46:57 10° SSW
Atlas Centaur 2 1.9 19:39:37 10° SW 19:42:59 35° SSE 19:44:51 21° E
Cosmos 2151 Rocket 3.8 19:40:03 10° NNE 19:44:20 49° E 19:48:40 10° SSE
Cosmos 1833 Rocket 2.6 19:40:23 10° N 19:45:57 65° ENE 19:51:31 10° SSE
Cosmos 1943 Rocket 2.6 19:43:40 10° SSW 19:49:06 61° WNW 19:54:34 10° N
BREEZE M DEB (TANK) 2.9 19:46:53 10° NNW 19:49:51 57° ENE 19:58:29 10° SE
Hubble Space Telescope 3.3 19:51:26 10° SSE 19:52:19 11° SSE 19:53:12 10° SE
Delta 2 Rocket 4.5 19:50:24 10° SSW 19:54:37 33° SE 19:56:15 24° ESE
NOSS 3-1 (A) 4.3 19:51:29 10° SW 19:56:37 40° WNW 20:01:49 10° N
Okean 2 Rocket 4.4 19:52:42 10° NNW 19:56:56 42° W 20:01:11 10° SSW
Cosmos 1656 Rocket 3.9 19:51:36 10° S 19:57:05 51° ESE 20:00:23 23° NE
Meteor 2-20 Rocket 4.3 19:54:55 10° N 20:00:58 80° E 20:07:03 10° S
ARIANE 5 DEB (SYLDA) 3.7 19:47:51 10° W 20:01:17 86° N 20:03:01 33° E
Cosmos 1378 Rocket 4.3 20:00:44 10° SSW 20:04:56 52° W 20:09:10 10° N
ARIANE 5 DEB (SYLDA) 2.7 20:03:12 10° W 20:10:05 65° S 20:10:44 49° SE
Cosmos 2026 Rocket 4.4 20:14:18 35° ENE 20:15:41 39° E 20:21:31 10° SSE
Cosmos 1437 Rocket 3.3 20:19:01 40° SSE 20:19:01 40° SSE 20:21:39 10° SSE
Delta 202 4.4 20:13:40 10° W 20:21:31 55° NNW 20:23:37 38° NNE
NOSS 2-3 (C) 3.5 20:18:17 10° SSW 20:23:04 66° ESE 20:23:25 63° E
Okean 1 3.7 20:20:41 10° SSW 20:24:41 61° W 20:26:10 35° NNW
MOS 1-B Rocket 4.2 20:18:39 10° SSE 20:24:48 57° ENE 20:31:56 10° N
Cosmos 858 Rocket 4.5 20:19:58 10° S 20:25:09 60° ESE 20:25:39 57° ENE
Ariane H10+ 4.0 20:23:53 10° WSW 20:26:53 37° S 20:29:23 25° ESE
ARIANE 5 DEB (SYLDA) 4.0 20:20:01 10° WSW 20:27:19 47° S 20:28:41 37° SE
Ariane H10 4.2 20:24:18 10° WSW 20:29:48 35° S 20:30:40 30° SSE
Cosmos 2279 Rocket 4.3 20:24:04 10° SSW 20:30:13 67° W 20:36:10 11° N
BLOCK DM-SL R/B 3.3 20:31:03 10° W 20:31:36 15° W 20:31:36 15° W
Cosmos 44 Rocket 3.7 20:28:13 10° NNW 20:35:58 28° SSE 20:38:20 10° SSE
Cosmos 2082 Rocket 3.9 20:35:11 10° NW 20:40:06 32° WSW 20:45:02 10° SSW
H-2A R/B 3.9 20:37:11 10° S 20:40:55 43° W 20:41:57 34° WNW
ARIANE R/B 4.1 20:37:20 10° WNW 20:40:04 35° NW 20:40:04 35° NW
ARIANE 5 DEB (SYLDA) 3.5 20:21:10 10° W 20:42:05 73° N 20:42:57 62° NE
Cosmos 44 3.8 20:44:01 10° NNW 20:49:03 62° WSW 20:54:17 10° SSE
Cosmos 1898 Rocket 4.4 20:52:40 10° SSW 20:57:31 42° WNW 20:58:16 39° NW
CZ-4C R/B 4.3 20:49:45 10° N 21:04:46 13° SE 21:05:33 10° SE
Meteor 2-4 Rocket 4.3 20:52:36 10° S 20:56:53 49° SSE 20:56:53 49° SSE
ARIANE 5 DEB (SYLDA) 4.2 20:45:11 10° W 20:59:15 73° S 21:00:00 68° SE
Meteor 1-13 Rocket 4.4 20:54:10 10° S 20:59:09 67° SW 20:59:09 67° SW
DELTA 2 R/B (1) 4.1 20:58:36 10° SW 21:02:51 53° SW 21:02:51 53° SW
ARIANE 5 DEB (SYLDA) 4.2 21:15:37 10° W 21:18:14 48° WNW 21:18:14 48° WNW
ATLAS 2AS CENTAUR R/B 3.3 21:24:46 10° SSW 21:30:11 56° WSW 21:30:11 56° WSW
Ariane H10-3 3.9 21:09:06 10° W 21:35:34 71° WSW 21:35:34 71° WSW
